Погода в Аспене

США     39°11′25″N   106°49′02″W
темп.,
°C
ветер,
м/с
пор.,
м/с
влажн.,
%
обл.,
%
осадки,
мм/ч
давл.,
гПа
погр.,
м
31 июля, сб
сб3100:00+8ююв1295100 16.8 102981
03:00+8ююв0197100 4.4 102889
06:00+9юв2392100 4.6 102664
09:00+14ссз116758 0.0 1025453
12:00+17ссз2156100 1.1 10221521
15:00+14зсз1178100 3.1 1023235
18:00+14с2278100 5.4 1021394
21:00+10с1196100 7.3 102660
1 августа, вс
вс100:00+9ю1297100 16.6 1027142
03:00+9в1193100 1.0 102528
06:00+7юв339396 1.0 102755
09:00+12юв227465 0.0 1025380
12:00+15юв225877 0.3 10241165
15:00+16в115599 0.6 10211204
18:00+12зюз1280100 1.3 102387
21:00+10вюв008995 0.4 102513
2 августа, пн
пн200:00+10з009385 0.5 102620
03:00+8юв22936 0.0 102522
06:00+8юв229060 0.0 102621
09:00+15з126540 0.3 1023529
12:00+17сз346054 1.6 10211461
15:00+16сз346795 3.1 10211069
18:00+14ссз347245 5.1 1021767
21:00+10всв119080 1.3 102310
3 августа, вт
вт300:00+8юв11928 1.3 102313
03:00+7юв119167 0.0 102320
06:00+7юв229113 0.0 102320
09:00+14сз117226 0.8 1020190
12:00+15сз226534 3.6 10191022
15:00+19ссв2248100 3.1 10161513
18:00+11вюв2487100 5.1 1020130
21:00+9ю1296100 10.8 102396
4 августа, ср
ср400:00+8юв129492 12.9 102343
03:00+7в119279 0.0 102312
06:00+6вюв219141 0.0 102414
09:00+14с026666 0.0 1021606
12:00+20зсз223897 0.0 10172351
15:00+15св126784 0.8 1020272
18:00+14вюв1171100 1.1 1020123
21:00+11вюв22775 0.1 102222